This is the latest recevied weather packets stored in our database for station/object N2XP-2. If no packets are shown the sender has not sent any weather packets the latest 10 day(s).
| Time | Temp. | Humidity | Pressure | Rain* | Wind** | Luminosity | Snow |
|---|---|---|---|---|---|---|---|
| 1778180341 | 18.89° C | 52% | 1008.4 hPa | 0 mm | 0.45 m/s, 84° | - | - |
| 1778180337 | 18.33° C | 53% | 1008.9 hPa | 0 mm | 0.45 m/s, 91° | - | - |
| 1778180088 | 18.33° C | 54% | 1008.5 hPa | 0 mm | 0 m/s | - | - |
| 1778180041 | 18.33° C | 54% | 1008.5 hPa | 0 mm | 0 m/s | - | - |
| 1778179742 | 18.33° C | 53% | 1008.5 hPa | 0 mm | 0.45 m/s, 97° | - | - |
| 1778179564 | 18.89° C | 52% | 1008.8 hPa | 0 mm | 1.34 m/s, 96° | - | - |
| 1778179439 | 18.89° C | 52% | 1008.8 hPa | 0 mm | 1.34 m/s, 96° | - | - |
| 1778179140 | 18.89° C | 52% | 1008.8 hPa | 0 mm | 0 m/s | - | - |
| 1778178840 | 18.33° C | 54% | 1008.8 hPa | 0 mm | 0 m/s | - | - |
| 1778178536 | 18.33° C | 53% | 1008.9 hPa | 0 mm | 0.45 m/s, 91° | - | - |
| 1778178433 | 17.78° C | 54% | 1009 hPa | 0 mm | 0.89 m/s, 55° | - | - |
| 1778178427 | 17.78° C | 55% | 1008.9 hPa | 0 mm | 0.45 m/s, 17° | - | - |
| 1778178237 | 18.33° C | 55% | 1008.8 hPa | 0 mm | 0 m/s | - | - |
| 1778177938 | 18.33° C | 55% | 1008.9 hPa | 0 mm | 0 m/s | - | - |
| 1778177634 | 18.33° C | 55% | 1009.1 hPa | 0 mm | 0 m/s | - | - |
| 1778177335 | 17.78° C | 54% | 1009 hPa | 0 mm | 0.89 m/s, 55° | - | - |
| 1778177036 | 17.78° C | 55% | 1008.9 hPa | 0 mm | 0.45 m/s, 17° | - | - |
| 1778176733 | 18.33° C | 55% | 1009 hPa | 0 mm | 0.89 m/s, 128° | - | - |
| 1778176508 | 17.22° C | 58% | 1009.4 hPa | 0 mm | 0.45 m/s, 134° | - | - |
| 1778176502 | 17.22° C | 59% | 1009.4 hPa | 0 mm | 0 m/s | - | - |
| 1778176494 | 17.22° C | 57% | 1009.6 hPa | 0 mm | 0.89 m/s, 77° | - | - |
| 1778176433 | 17.78° C | 56% | 1009.1 hPa | 0 mm | 0 m/s | - | - |
| 1778176134 | 17.78° C | 56% | 1009.1 hPa | 0 mm | 0 m/s | - | - |
| 1778175831 | 17.78° C | 57% | 1009.2 hPa | 0 mm | 0 m/s | - | - |
| 1778175531 | 17.22° C | 57% | 1009.3 hPa | 0 mm | 0.89 m/s, 120° | - | - |
* Rain latest hour (hover to see other rain measurements)
** Current wind speed in m/s (hover to see current wind gust speed)